Location: Blanot
(47.1713°N, 4.2340°E)
Time: 04:42:04
(UTC+00:00)

CZ-2D R/B - Pass Details

Date: 14 July 2020
Orbit: 553 x 639 km, 97.9° (Epoch: 06 August)

Event Time Altitude Azimuth Distance (km) Brightness Sun altitude
Rises 02:37:38 0° 16° (NNE) 2,934 8.4 -11.4°
Reaches altitude 10° 02:39:54 10° 21° (NNE) 2,012 7.5 -11.2°
Maximum altitude 02:44:13 57° 100° (E) 731 4.1 -10.7°
Drops below altitude 10° 02:48:24 10° 180° (S) 1,950 5.7 -10.2°
Enters shadow 02:49:04 - 182° (S) 2,219 6.0 -10.2°
